Time,TemperatureF,DewpointF,PressureIn,WindDirection,WindDirectionDegrees,WindSpeedMPH,WindSpeedGustMPH,Humidity,HourlyPrecipIn,Conditions,Clouds,dailyrainin,SolarRadiationWatts/m^2,SoftwareType,DateUTC
2013-08-10 00:00:00,65.0,60.0,-100.00,SE,135,1.0,-999.0,85,-99.99,,,-99.99,0.000000,,2013-08-10 04:00:00,
2013-08-10 00:43:00,65.0,60.0,-100.00,SE,135,1.0,-999.0,85,-99.99,,,-99.99,0.000000,,2013-08-10 04:43:00,
2013-08-10 00:53:00,65.0,60.0,-100.00,SE,135,1.0,-999.0,85,-99.99,,,-99.99,0.000000,,2013-08-10 04:53:00,
2013-08-10 01:00:00,65.0,61.0,-100.00,East,90,0.0,-999.0,87,-99.99,,,-99.99,0.000000,,2013-08-10 05:00:00,
2013-08-10 01:43:00,65.0,61.0,-100.00,East,90,0.0,-999.0,87,-99.99,,,-99.99,0.000000,,2013-08-10 05:43:00,
2013-08-10 01:52:00,65.0,61.0,-100.00,East,90,0.0,-999.0,87,-99.99,,,-99.99,0.000000,,2013-08-10 05:52:00,
2013-08-10 02:00:00,64.0,61.0,-100.00,ESE,112,1.0,-999.0,90,-99.99,,,-99.99,0.000000,,2013-08-10 06:00:00,
2013-08-10 02:44:00,64.0,61.0,-100.00,ESE,112,1.0,-999.0,90,-99.99,,,-99.99,0.000000,,2013-08-10 06:44:00,
2013-08-10 02:53:00,64.0,61.0,-100.00,ESE,112,1.0,-999.0,90,-99.99,,,-99.99,0.000000,,2013-08-10 06:53:00,
2013-08-10 03:00:00,66.0,62.0,-100.00,SSE,157,1.0,-999.0,87,-99.99,,,-99.99,0.000000,,2013-08-10 07:00:00,
2013-08-10 03:33:00,66.0,62.0,-100.00,SSE,157,1.0,-999.0,87,-99.99,,,-99.99,0.000000,,2013-08-10 07:33:00,
2013-08-10 03:43:00,66.0,62.0,-100.00,SSE,157,1.0,-999.0,87,-99.99,,,-99.99,0.000000,,2013-08-10 07:43:00,
2013-08-10 03:52:00,66.0,62.0,-100.00,SSE,157,1.0,-999.0,87,-99.99,,,-99.99,0.000000,,2013-08-10 07:52:00,
2013-08-10 04:00:00,65.0,62.0,-100.00,ENE,67,1.0,-999.0,88,-99.99,,,-99.99,0.000000,,2013-08-10 08:00:00,
2013-08-10 04:32:00,65.0,62.0,-100.00,ENE,67,1.0,-999.0,88,-99.99,,,-99.99,0.000000,,2013-08-10 08:32:00,
2013-08-10 04:43:00,65.0,62.0,-100.00,ENE,67,1.0,-999.0,88,-99.99,,,-99.99,0.000000,,2013-08-10 08:43:00,
2013-08-10 04:53:00,65.0,62.0,-100.00,ENE,67,1.0,-999.0,88,-99.99,,,-99.99,0.000000,,2013-08-10 08:53:00,
2013-08-10 05:00:00,65.0,61.0,-100.00,NE,45,1.0,-999.0,88,-99.99,,,-99.99,0.000000,,2013-08-10 09:00:00,
2013-08-10 05:43:00,65.0,61.0,-100.00,NE,45,1.0,-999.0,88,-99.99,,,-99.99,0.000000,,2013-08-10 09:43:00,
2013-08-10 05:52:00,65.0,61.0,-100.00,NE,45,1.0,-999.0,88,-99.99,,,-99.99,0.000000,,2013-08-10 09:52:00,
2013-08-10 06:00:00,64.0,61.0,-100.00,NE,45,3.0,-999.0,87,-99.99,,,-99.99,0.000000,,2013-08-10 10:00:00,
2013-08-10 06:44:00,64.0,61.0,-100.00,NE,45,3.0,-999.0,87,-99.99,,,-99.99,0.000000,,2013-08-10 10:44:00,
2013-08-10 06:53:00,64.0,61.0,-100.00,NE,45,3.0,-999.0,87,-99.99,,,-99.99,0.000000,,2013-08-10 10:53:00,
2013-08-10 07:00:00,64.0,60.0,-100.00,ENE,67,3.0,-999.0,87,-99.99,,,-99.99,1.160000,,2013-08-10 11:00:00,
2013-08-10 07:43:00,64.0,60.0,-100.00,ENE,67,3.0,-999.0,87,-99.99,,,-99.99,1.160000,,2013-08-10 11:43:00,
2013-08-10 07:53:00,64.0,60.0,-100.00,ENE,67,3.0,-999.0,87,-99.99,,,-99.99,1.160000,,2013-08-10 11:53:00,
2013-08-10 08:00:00,64.0,59.0,-100.00,ENE,67,3.0,-999.0,85,-99.99,,,-99.99,39.439999,,2013-08-10 12:00:00,
2013-08-10 08:42:00,64.0,59.0,-100.00,ENE,67,3.0,-999.0,85,-99.99,,,-99.99,39.439999,,2013-08-10 12:42:00,
2013-08-10 08:52:00,64.0,59.0,-100.00,ENE,67,3.0,-999.0,85,-99.99,,,-99.99,39.439999,,2013-08-10 12:52:00,
2013-08-10 09:00:00,66.0,59.0,-100.00,ENE,67,4.0,-999.0,77,-99.99,,,-99.99,161.240005,,2013-08-10 13:00:00,
2013-08-10 09:43:00,66.0,59.0,-100.00,ENE,67,4.0,-999.0,77,-99.99,,,-99.99,161.240005,,2013-08-10 13:43:00,
2013-08-10 09:52:00,66.0,59.0,-100.00,ENE,67,4.0,-999.0,77,-99.99,,,-99.99,161.240005,,2013-08-10 13:52:00,
2013-08-10 10:00:00,69.0,58.0,-100.00,East,90,5.0,-999.0,69,-99.99,,,-99.99,271.440002,,2013-08-10 14:00:00,
2013-08-10 10:43:00,69.0,58.0,-100.00,East,90,5.0,-999.0,69,-99.99,,,-99.99,271.440002,,2013-08-10 14:43:00,
2013-08-10 10:53:00,69.0,58.0,-100.00,East,90,5.0,-999.0,69,-99.99,,,-99.99,271.440002,,2013-08-10 14:53:00,
2013-08-10 11:00:00,72.0,59.0,-100.00,East,90,4.0,-999.0,62,-99.99,,,-99.99,519.679993,,2013-08-10 15:00:00,
2013-08-10 12:00:00,74.0,58.0,-100.00,ENE,67,4.0,-999.0,57,-99.99,,,-99.99,580.000000,,2013-08-10 16:00:00,
2013-08-10 12:32:00,74.0,58.0,-100.00,ENE,67,4.0,-999.0,57,-99.99,,,-99.99,580.000000,,2013-08-10 16:32:00,
2013-08-10 12:43:00,74.0,58.0,-100.00,ENE,67,4.0,-999.0,57,-99.99,,,-99.99,580.000000,,2013-08-10 16:43:00,
2013-08-10 12:53:00,74.0,58.0,-100.00,ENE,67,4.0,-999.0,57,-99.99,,,-99.99,580.000000,,2013-08-10 16:53:00,
2013-08-10 13:00:00,76.0,54.0,-100.00,NE,45,5.0,-999.0,45,-99.99,,,-99.99,726.159973,,2013-08-10 17:00:00,
2013-08-10 14:00:00,77.0,53.0,-100.00,NE,45,4.0,-999.0,42,-99.99,,,-99.99,785.320007,,2013-08-10 18:00:00,
2013-08-10 14:32:00,77.0,53.0,-100.00,NE,45,4.0,-999.0,42,-99.99,,,-99.99,785.320007,,2013-08-10 18:32:00,
2013-08-10 14:44:00,77.0,53.0,-100.00,NE,45,4.0,-999.0,42,-99.99,,,-99.99,785.320007,,2013-08-10 18:44:00,
2013-08-10 14:52:00,77.0,53.0,-100.00,NE,45,4.0,-999.0,42,-99.99,,,-99.99,785.320007,,2013-08-10 18:52:00,
2013-08-10 15:00:00,79.0,55.0,-100.00,North,0,3.0,-999.0,43,-99.99,,,-99.99,705.280029,,2013-08-10 19:00:00,
2013-08-10 15:33:00,79.0,55.0,-100.00,North,0,3.0,-999.0,43,-99.99,,,-99.99,705.280029,,2013-08-10 19:33:00,
2013-08-10 15:44:00,79.0,55.0,-100.00,North,0,3.0,-999.0,43,-99.99,,,-99.99,705.280029,,2013-08-10 19:44:00,
2013-08-10 15:53:00,79.0,55.0,-100.00,North,0,3.0,-999.0,43,-99.99,,,-99.99,705.280029,,2013-08-10 19:53:00,
2013-08-10 16:00:00,78.0,55.0,-100.00,North,0,4.0,-999.0,45,-99.99,,,-99.99,571.880005,,2013-08-10 20:00:00,
2013-08-10 16:33:00,78.0,55.0,-100.00,North,0,4.0,-999.0,45,-99.99,,,-99.99,571.880005,,2013-08-10 20:33:00,
2013-08-10 16:43:00,78.0,55.0,-100.00,North,0,4.0,-999.0,45,-99.99,,,-99.99,571.880005,,2013-08-10 20:43:00,
2013-08-10 16:53:00,78.0,55.0,-100.00,North,0,4.0,-999.0,45,-99.99,,,-99.99,571.880005,,2013-08-10 20:53:00,
2013-08-10 17:00:00,78.0,53.0,-100.00,North,0,4.0,-999.0,42,-99.99,,,-99.99,394.399994,,2013-08-10 21:00:00,
2013-08-10 17:32:00,78.0,53.0,-100.00,North,0,4.0,-999.0,42,-99.99,,,-99.99,394.399994,,2013-08-10 21:32:00,
2013-08-10 17:42:00,78.0,53.0,-100.00,North,0,4.0,-999.0,42,-99.99,,,-99.99,394.399994,,2013-08-10 21:42:00,
2013-08-10 17:52:00,78.0,53.0,-100.00,North,0,4.0,-999.0,42,-99.99,,,-99.99,394.399994,,2013-08-10 21:52:00,
2013-08-10 18:00:00,77.0,55.0,-100.00,North,0,5.0,-999.0,45,-99.99,,,-99.99,397.880005,,2013-08-10 22:00:00,
2013-08-10 18:32:00,77.0,55.0,-100.00,North,0,5.0,-999.0,45,-99.99,,,-99.99,397.880005,,2013-08-10 22:32:00,
2013-08-10 18:43:00,77.0,55.0,-100.00,North,0,5.0,-999.0,45,-99.99,,,-99.99,397.880005,,2013-08-10 22:43:00,
2013-08-10 18:52:00,77.0,55.0,-100.00,North,0,5.0,-999.0,45,-99.99,,,-99.99,397.880005,,2013-08-10 22:52:00,
2013-08-10 19:00:00,78.0,55.0,-100.00,North,0,4.0,-999.0,44,-99.99,,,-99.99,336.399994,,2013-08-10 23:00:00,
2013-08-10 19:33:00,78.0,55.0,-100.00,North,0,4.0,-999.0,44,-99.99,,,-99.99,336.399994,,2013-08-10 23:33:00,
2013-08-10 19:43:00,78.0,55.0,-100.00,North,0,4.0,-999.0,44,-99.99,,,-99.99,336.399994,,2013-08-10 23:43:00,
2013-08-10 19:53:00,78.0,55.0,-100.00,North,0,4.0,-999.0,44,-99.99,,,-99.99,336.399994,,2013-08-10 23:53:00,
2013-08-10 20:00:00,77.0,55.0,-100.00,North,0,3.0,-999.0,45,-99.99,,,-99.99,179.800003,,2013-08-11 00:00:00,
2013-08-10 20:32:00,77.0,55.0,-100.00,North,0,3.0,-999.0,45,-99.99,,,-99.99,179.800003,,2013-08-11 00:32:00,
2013-08-10 20:42:00,77.0,55.0,-100.00,North,0,3.0,-999.0,45,-99.99,,,-99.99,179.800003,,2013-08-11 00:42:00,
2013-08-10 20:52:00,77.0,55.0,-100.00,North,0,3.0,-999.0,45,-99.99,,,-99.99,179.800003,,2013-08-11 00:52:00,
2013-08-10 21:00:00,71.0,55.0,-100.00,North,0,1.0,-999.0,56,-99.99,,,-99.99,29.000000,,2013-08-11 01:00:00,
2013-08-10 21:32:00,71.0,55.0,-100.00,North,0,1.0,-999.0,56,-99.99,,,-99.99,29.000000,,2013-08-11 01:32:00,
2013-08-10 21:43:00,71.0,55.0,-100.00,North,0,1.0,-999.0,56,-99.99,,,-99.99,29.000000,,2013-08-11 01:43:00,
2013-08-10 21:54:00,71.0,55.0,-100.00,North,0,1.0,-999.0,56,-99.99,,,-99.99,29.000000,,2013-08-11 01:54:00,
2013-08-10 22:00:00,65.0,54.0,-100.00,NNE,22,2.0,-999.0,66,-99.99,,,-99.99,0.000000,,2013-08-11 02:00:00,
2013-08-10 22:32:00,65.0,54.0,-100.00,NNE,22,2.0,-999.0,66,-99.99,,,-99.99,0.000000,,2013-08-11 02:32:00,
2013-08-10 22:43:00,65.0,54.0,-100.00,NNE,22,2.0,-999.0,66,-99.99,,,-99.99,0.000000,,2013-08-11 02:43:00,
2013-08-10 22:58:00,65.0,54.0,-100.00,NNE,22,2.0,-999.0,66,-99.99,,,-99.99,0.000000,,2013-08-11 02:58:00,
2013-08-10 23:00:00,64.0,53.0,-100.00,NNE,22,2.0,-999.0,67,-99.99,,,-99.99,0.000000,,2013-08-11 03:00:00,
2013-08-10 23:36:00,64.0,53.0,-100.00,NNE,22,2.0,-999.0,67,-99.99,,,-99.99,0.000000,,2013-08-11 03:36:00,